[Date Prev][Date Next][Thread Prev][Thread Next] - [Date Index][Thread Index][Author Index]
2 Line ISS Keps 3-1
- Subject: [sarex] 2 Line ISS Keps 3-1
- From: "Dave Larsen Ph.D." <doc@xxxxxxxxxxx>
- Date: Fri, 28 Feb 2003 23:58:32 -0800
ISS
1 25544U 98067A 03060.14577546 .00025802 00000-0 33082-3 0 7374
2 25544 51.6335 202.8912 0011877 260.0175 88.9841 15.58902727244143
----
Via the sarex mailing list at AMSAT.ORG courtesy of AMSAT-NA.
To unsubscribe, send "unsubscribe sarex" to Majordomo@amsat.org
AMSAT Home